[[{"header":{"parameterUnit":"m.s-1","parameterCategory":1,"la1":30.2991,"la2":30.254,"lo1":-89.0895,"lo2":-89.0444,"dy":0.0017,"dx":0.0017,"nx":28,"ny":28,"refTime":"2024-09-30T03:00:00:Z","depth":0,"parameterNumber":2,"parameterNumberName":"U-component_of_WINDS"},"data":[0,0,0,0,0,0,0,0,0,0,0,0,0,0,0,0,0,0,0,0,0,0,0,0,0,0,0,0,0,0,0,0,0,0,0,0,0,0,0,0,0,0,0,0,0,0,0,0,0,0,0,0,0,0,0,0,0,0,2.9755,2.9757,0,2.99,2.9902,2.9904,2.986,2.9857,2.9854,2.9851,3.0003,3.001,3.0017,0,0,0,0,0,0,0,0,0,0,0,0,0,2.9442,2.9448,2.9755,2.9757,2.9759,2.99,2.9902,2.9904,2.9861,2.9857,2.9853,2.985,3.0001,3.0009,3.0017,0,0,0,0,0,0,0,0,0,0,0,0,0,2.9582,2.945,2.9755,2.9754,2.9755,2.99,2.9902,2.9905,2.9862,2.9857,2.9852,2.9848,2.9998,3.0008,3.0018,3.0173,0,0,3.005,3.0054,0,0,0,0,0,0,0,0,2.9574,2.9593,2.9752,2.9754,2.9756,2.9857,2.9847,2.9995,2.9863,2.9821,2.9851,2.9846,2.9959,2.9972,3.0009,3.018,3.0187,3.0051,3.0057,3.0061,3.0064,0,0,0,0,0,0,0,2.9564,2.9587,2.9812,2.9755,2.9757,2.9747,2.9762,2.9875,2.9914,2.9825,2.9822,2.9839,2.9959,2.9999,3.0012,3.0189,3.005,3.006,3.0066,3.007,3.0494,3.0499,0,0,0,0,0,0,2.9553,2.9579,2.9808,2.9817,2.9652,2.9756,2.9773,2.983,2.9912,2.9921,2.9843,2.9837,2.9984,3.0,3.0018,3.0204,3.0061,3.0071,3.0077,3.0489,3.0495,3.0501,0,0,0,0,0,0,2.9546,2.9574,2.9802,2.9697,2.9726,2.9767,2.9831,2.9835,2.9875,2.9926,2.9933,2.9877,2.9981,3.0003,3.0134,3.0209,3.0076,3.0085,3.0483,3.0491,3.0498,3.0578,0,0,0,0,0,0,2.9538,2.9572,2.963,2.9699,2.9731,2.9916,2.9835,2.9841,2.9893,2.9886,2.996,2.9968,2.9979,3.0119,3.0145,3.022,3.0093,3.0476,3.0486,3.0495,3.0569,3.0588,3.0604,0,0,0,0,0,2.9527,2.9648,2.9634,2.9661,2.9805,2.992,2.9939,2.9948,2.9899,2.9959,2.9991,2.9966,3.0196,3.0133,3.0161,3.0241,3.0472,3.0484,3.0495,3.0562,3.0584,3.0603,0,0,0,0,0,0,2.9588,2.9657,2.9642,2.9789,2.9849,2.9913,2.9988,2.9972,3.0048,3.0038,3.0047,3.0065,3.0199,3.0233,3.0162,3.0395,3.0327,3.0345,3.0368,3.039,3.0407,3.0396,3.0102,0,0,0,0,0,2.9619,2.9705,2.9761,2.9885,2.9916,2.9947,2.9998,2.9999,3.0062,3.0088,3.013,3.0193,3.028,3.0337,3.0419,3.0574,3.059,3.0643,3.066,3.0674,3.0689,3.0774,3.0798,3.0538,3.0538,3.0538,0,0,2.9683,2.9731,2.9786,2.9899,2.9946,3.0036,2.9969,3.0068,3.0135,3.0103,3.023,3.0263,3.0334,3.0478,3.0543,3.051,3.0764,3.0688,3.0699,3.0707,3.0788,3.0812,3.0834,3.0546,3.0544,3.0543,0,0,2.9846,2.9891,3.0,3.0048,3.0119,3.0139,3.0165,3.0231,3.0252,3.0379,3.0357,3.0437,3.0586,3.0638,3.0683,3.0866,3.0845,3.0892,3.0982,3.1065,3.1085,3.1103,3.1169,3.1192,3.0907,3.0907,3.0908,0,2.9917,3.0052,3.0058,3.0158,3.0209,3.0183,3.0293,3.034,3.0435,3.0471,3.0433,3.0619,3.0665,3.082,3.0864,3.0902,3.0933,3.0884,3.1081,3.11,3.1117,3.1179,3.1204,3.0913,3.0912,3.0912,3.0911,0,3.0136,3.0229,3.0309,3.04,3.0459,3.0564,3.0587,3.0647,3.0643,3.0667,3.0797,3.0851,3.0944,3.098,3.0979,3.1136,3.1113,3.1078,3.101,3.1147,3.1206,3.1229,3.092,3.0918,3.0917,3.0915,0,0,3.0343,3.0435,3.0464,3.0505,3.0582,3.0655,3.0759,3.0848,3.09,3.0966,3.1054,3.118,3.1148,3.12,3.1203,3.1276,3.1417,3.1232,3.1233,3.1264,3.1594,3.162,3.1648,3.1403,3.1408,3.1412,3.1588,0,3.0512,3.0694,3.0702,3.0868,3.0955,3.0931,3.1022,3.1079,3.1104,3.1182,3.121,3.13,3.125,3.1281,3.1352,3.1385,3.1483,3.1372,3.1486,3.149,3.1469,3.1678,3.1706,3.187,3.1611,3.1615,3.1618,0,3.0735,3.0807,3.0981,3.1045,3.1082,3.1163,3.1246,3.1321,3.1385,3.1398,3.1456,3.1449,3.1556,3.1484,3.1632,3.1556,3.1603,3.1626,3.1633,3.1644,3.1562,3.1696,3.1923,3.1948,3.1654,3.1651,3.1648,0,3.0869,3.101,3.1132,3.1168,3.1245,3.1303,3.1338,3.1398,3.1451,3.1524,3.1559,3.1644,3.169,3.1757,3.1773,3.1718,3.1921,3.185,3.1936,3.1936,3.198,3.1977,3.2218,3.201,3.2009,3.2009,3.2008,0,3.1058,3.1165,3.1193,3.1268,3.1388,3.1397,3.1515,3.1547,3.16,3.1682,3.1667,3.1744,3.1761,3.1841,3.1855,3.1976,3.1997,3.2011,3.2014,3.2013,3.2011,3.2044,3.2033,3.2015,3.2014,3.2013,3.2012,0,3.1228,3.125,3.1382,3.1444,3.1462,3.1548,3.1602,3.1675,3.1697,3.1801,3.1826,3.1862,3.1956,3.1979,3.2092,3.2101,3.2244,3.2235,3.2222,3.2221,3.2306,3.2298,3.2577,3.2615,3.2381,3.2383,3.2385,0,3.1347,3.1429,3.15,3.1553,3.159,3.1676,3.173,3.1742,3.1799,3.1878,3.1942,3.2034,3.2108,3.226,3.2297,3.2383,3.2377,3.2469,3.239,3.2386,3.2379,3.2374,3.2382,3.2484,3.2487,3.2489,3.249,0,3.1557,3.1564,3.1642,3.1724,3.1789,3.1854,3.1917,3.1962,3.1982,3.2047,3.2142,3.22,3.2314,3.2406,3.2493,3.253,3.2514,3.2515,3.2539,3.254,3.2529,3.2536,3.2263,3.2508,3.2507,3.2505,3.2504,3.2504,3.1706,3.1777,3.1838,3.1925,3.1973,3.2032,3.2103,3.2135,3.2214,3.2307,3.231,3.2414,3.2476,3.2591,3.2633,3.2715,3.2687,3.2722,3.2732,3.274,3.2748,3.2515,3.2731,3.273,3.273,3.2729,3.2729,0,3.1915,3.1952,3.2033,3.212,3.2189,3.2167,3.2235,3.2294,3.2386,3.2445,3.2518,3.2628,3.2717,3.2761,3.2849,3.2907,3.2902,3.293,3.2926,3.2935,3.2768,3.2738,3.2932,3.2932,3.2932,3.2932,3.2932,3.2932,3.2032,3.2152,3.2166,3.231,3.2347,3.2448,3.2489,3.2543,3.259,3.2713,3.2787,3.2814,3.2868,3.296,3.3041,3.3051,3.3085,3.3117,3.3124,3.2967,3.2946,3.2927,3.2899,3.3124,3.3124,3.3284,3.3285,3.3287]},{"header":{"parameterUnit":"m.s-1","parameterCategory":1,"la1":30.2991,"la2":30.254,"lo1":-89.0895,"lo2":-89.0444,"dy":0.0017,"dx":0.0017,"nx":28,"ny":28,"refTime":"2024-09-30T03:00:00:Z","depth":0,"parameterNumber":3,"parameterNumberName":"V-component_of_WINDS"},"data":[0,0,0,0,0,0,0,0,0,0,0,0,0,0,0,0,0,0,0,0,0,0,0,0,0,0,0,0,0,0,0,0,0,0,0,0,0,0,0,0,0,0,0,0,0,0,0,0,0,0,0,0,0,0,0,0,0,0,1.1207,1.1207,0,1.1229,1.1229,1.1229,1.1176,1.1174,1.1173,1.1171,1.1198,1.12,1.1202,0,0,0,0,0,0,0,0,0,0,0,0,0,1.1123,1.1124,1.1207,1.1207,1.1207,1.1229,1.1229,1.1229,1.1176,1.1174,1.1172,1.117,1.1197,1.12,1.1202,0,0,0,0,0,0,0,0,0,0,0,0,0,1.1154,1.1125,1.1207,1.1184,1.1182,1.1229,1.1229,1.1229,1.1177,1.1174,1.1172,1.1169,1.1196,1.1199,1.1203,1.1275,0,0,1.1213,1.1215,0,0,0,0,0,0,0,0,1.1152,1.1157,1.1187,1.1185,1.1183,1.1197,1.1209,1.1245,1.1178,1.1179,1.1171,1.1168,1.12,1.1203,1.1213,1.1276,1.1277,1.1214,1.1216,1.1217,1.1218,0,0,0,0,0,0,0,1.115,1.1155,1.1216,1.1187,1.1185,1.1173,1.1175,1.1216,1.1204,1.1179,1.1175,1.1178,1.1198,1.1209,1.1213,1.1277,1.1213,1.1216,1.1219,1.122,1.1401,1.1403,0,0,0,0,0,0,1.115,1.1154,1.1215,1.1216,1.1161,1.1177,1.1178,1.1195,1.1203,1.1201,1.118,1.1175,1.1205,1.1209,1.1214,1.1298,1.1217,1.122,1.1222,1.1398,1.1401,1.1404,0,0,0,0,0,0,1.1149,1.1156,1.1214,1.1184,1.1191,1.1181,1.12,1.1197,1.1208,1.1204,1.1202,1.1193,1.1203,1.1209,1.1259,1.1298,1.1222,1.1225,1.1395,1.1399,1.1403,1.1468,0,0,0,0,0,0,1.1146,1.1156,1.1182,1.1185,1.1192,1.1259,1.1203,1.1199,1.1213,1.1208,1.1216,1.1215,1.1201,1.1255,1.1263,1.1302,1.1228,1.1391,1.1397,1.1401,1.1462,1.1474,1.1484,0,0,0,0,0,1.1143,1.1201,1.1184,1.1192,1.1225,1.1261,1.1266,1.1248,1.1217,1.1244,1.1241,1.1214,1.1292,1.126,1.1269,1.131,1.1389,1.1395,1.1401,1.1458,1.1472,1.1483,0,0,0,0,0,0,1.1205,1.1201,1.1182,1.1242,1.1252,1.1252,1.1286,1.1263,1.1284,1.1278,1.1256,1.1258,1.1314,1.1316,1.1281,1.1379,1.1335,1.1344,1.1375,1.1389,1.1399,1.1398,1.123,0,0,0,0,0,1.1225,1.1253,1.1249,1.1302,1.1308,1.1296,1.1311,1.1297,1.1307,1.1312,1.1312,1.1325,1.1352,1.137,1.1395,1.1462,1.1463,1.1494,1.1505,1.1514,1.1521,1.1557,1.1571,1.1424,1.1424,1.1424,0,0,1.1268,1.1269,1.1288,1.1314,1.1321,1.1352,1.13,1.1335,1.1358,1.1317,1.1365,1.1366,1.1378,1.1437,1.1464,1.1442,1.1562,1.1522,1.1529,1.1531,1.1565,1.1579,1.1591,1.1429,1.1428,1.1427,0,0,1.1361,1.1364,1.1409,1.1416,1.1425,1.1417,1.1427,1.1431,1.1429,1.1476,1.1446,1.1474,1.1521,1.1531,1.1542,1.1638,1.1614,1.1647,1.1703,1.1738,1.1749,1.1759,1.1794,1.1806,1.1654,1.1654,1.1654,0,1.1413,1.1457,1.1435,1.1472,1.1484,1.1447,1.1492,1.15,1.1518,1.1528,1.1503,1.156,1.1566,1.1627,1.165,1.166,1.1673,1.1646,1.1749,1.1759,1.1768,1.1801,1.1814,1.1658,1.1658,1.1657,1.1657,0,1.1521,1.1552,1.1587,1.1603,1.162,1.1661,1.1646,1.1665,1.1649,1.1643,1.1692,1.1697,1.1722,1.1735,1.172,1.1794,1.178,1.1752,1.1708,1.1786,1.1817,1.1829,1.1664,1.1662,1.1661,1.166,0,0,1.1654,1.1657,1.167,1.1677,1.1684,1.1708,1.1748,1.1771,1.1788,1.1801,1.1834,1.1874,1.1848,1.1861,1.1847,1.1878,1.1953,1.1846,1.1846,1.1866,1.2035,1.2056,1.2071,1.1937,1.194,1.1941,1.2034,0,1.1747,1.1813,1.1794,1.1861,1.1889,1.1853,1.1888,1.1897,1.1892,1.1917,1.1913,1.1941,1.1905,1.1912,1.1941,1.1938,1.1987,1.1931,1.1969,1.1971,1.1968,1.2087,1.211,1.2197,1.2046,1.2048,1.2049,0,1.1863,1.1879,1.1949,1.195,1.1962,1.1993,1.2012,1.2036,1.2045,1.204,1.2053,1.2033,1.2072,1.2027,1.2082,1.2044,1.2058,1.2059,1.2062,1.2066,1.2015,1.2094,1.2225,1.2238,1.2068,1.2066,1.2065,0,1.1954,1.1993,1.204,1.2046,1.205,1.2072,1.2075,1.2081,1.2096,1.2113,1.2123,1.2145,1.2158,1.2175,1.2162,1.213,1.2219,1.2172,1.2216,1.2217,1.2238,1.2237,1.2373,1.2246,1.2246,1.2245,1.2245,0,1.2059,1.2103,1.208,1.2109,1.2157,1.2135,1.2184,1.2183,1.2189,1.2217,1.2188,1.2215,1.2195,1.2221,1.2211,1.2258,1.2264,1.2261,1.2258,1.2264,1.2265,1.2274,1.2268,1.2249,1.2248,1.2248,1.2247,0,1.2169,1.2155,1.2204,1.2202,1.2203,1.2238,1.2238,1.2265,1.2258,1.2294,1.2301,1.2291,1.232,1.2308,1.2339,1.2332,1.2392,1.2381,1.2389,1.2386,1.2431,1.2428,1.2579,1.2598,1.2458,1.246,1.2461,0,1.2238,1.227,1.2272,1.2288,1.2292,1.2319,1.2333,1.2313,1.2329,1.2342,1.2367,1.2394,1.2414,1.2462,1.2458,1.2482,1.2471,1.2522,1.2475,1.248,1.2472,1.2471,1.2474,1.2532,1.2534,1.2535,1.2536,0,1.236,1.2352,1.2373,1.2392,1.2409,1.2424,1.2436,1.2451,1.2431,1.2451,1.248,1.2495,1.2526,1.2553,1.2574,1.2577,1.2554,1.2551,1.2563,1.257,1.2573,1.2572,1.2416,1.2548,1.2547,1.2546,1.2545,1.2545,1.2452,1.2479,1.2484,1.2509,1.2515,1.2527,1.2552,1.2547,1.257,1.2593,1.258,1.2613,1.2622,1.2647,1.2654,1.268,1.266,1.2677,1.2681,1.2686,1.2692,1.2568,1.2684,1.2684,1.2683,1.2683,1.2683,0,1.2573,1.2574,1.2597,1.2614,1.2634,1.2608,1.262,1.2638,1.2668,1.2677,1.2696,1.2729,1.2755,1.2752,1.2776,1.2798,1.2788,1.2805,1.2803,1.2805,1.2708,1.2696,1.2813,1.2813,1.2813,1.2813,1.2812,1.2812,1.2639,1.2684,1.2676,1.2723,1.2724,1.2756,1.2765,1.2776,1.2782,1.282,1.2841,1.2838,1.2843,1.2866,1.2889,1.2888,1.2898,1.2919,1.2914,1.2824,1.2812,1.2799,1.2788,1.2922,1.2922,1.3008,1.3009,1.301]}]]